Antalya, Turkey

6:49 AM +03 on May 30, 2017 (GMT +0300)
Antalya

Weather History for LTAI - February, 2013

Change the Weather History Date:

Tuesday, February 12, 2013

  Actual Average Record
Temperature  
Mean Temperature 52 °F -  
Max Temperature 62 °F 61 °F 68 °F (2001)
Min Temperature 42 °F 44 °F 32 °F (2005)
Degree Days  
Heating Degree Days 13    
Growing Degree Days 2 (Base 50)    
Moisture  
Dew Point 34 °F    
Average Humidity 54    
Maximum Humidity 81    
Minimum Humidity 24    
Precipitation  
Precipitation 0.00 in 0.20 in - ()
Sea Level Pressure  
Sea Level Pressure 30.05 in    
Wind  
Wind Speed 8 mph ()    
Max Wind Speed 14 mph    
Max Gust Speed -    
Visibility 6.2 miles    
Events      
Averages and records for this station are not official NWS values.
T = Trace of Precipitation, MM = Missing Value Source: Averaged Metar Reports

Daily Weather History Graph

Daily Weather History Graph

Search for Another Location

Airport or City:

Trip Planner

Search our weather history database for the weather conditions in past years. The results will help you decide how hot, cold, wet, or windy it might be!

Date:

Astronomy

Feb. 12, 2013 Rise Set
Actual Time 6:48 AM EET 5:34 PM EET
Civil Twilight 6:22 AM EET 6:00 PM EET
Nautical Twilight 5:51 AM EET 6:31 PM EET
Astronomical Twilight 5:21 AM EET 7:01 PM EET
Moon 7:40 AM EET (2/12) 8:08 PM EET (2/12)
Length of Visible Light 11h 38m
Length of Day
10h 45m
Waxing Crescent, 6% of the Moon is Illuminated
Feb 12
Waxing Crescent
Feb 17
First Quarter
Feb 25
Full
Mar 4
Last Quarter
Mar 11
New

Hourly Weather History & Observations

Time (EET) Temp. Windchill Dew Point Humidity Pressure Visibility Wind Dir Wind Speed Gust Speed Precip Events Conditions
12:50 AM 50.0 °F - 32.0 °F 50% 29.98 in - WNW 11.5 mph - N/A   Clear
1:20 AM 48.2 °F - 32.0 °F 54% 29.98 in - NW 9.2 mph - N/A   Clear
1:50 AM 46.4 °F 42.4 °F 32.0 °F 57% 29.98 in - WNW 8.1 mph - N/A   Clear
2:00 AM 47 °F - 33 °F 45% 29.99 in 6 mi WNW 8.1 mph - -  
2:20 AM 46.4 °F 41.9 °F 33.8 °F 62% 30.01 in - NW 9.2 mph - N/A   Clear
2:50 AM 46.4 °F 41.5 °F 32.0 °F 57% 30.01 in - NW 10.4 mph - N/A   Clear
3:20 AM 46.4 °F 41.1 °F 33.8 °F 62% 30.01 in - NW 11.5 mph - N/A   Clear
3:50 AM 48.2 °F - 33.8 °F 58% 29.98 in - NW 12.7 mph - N/A   Clear
4:20 AM 44.6 °F 38.8 °F 33.8 °F 66% 29.98 in - NW 11.5 mph - N/A   Clear
4:50 AM 48.2 °F - 33.8 °F 58% 30.01 in - WNW 11.5 mph - N/A   Clear
5:20 AM 48.2 °F - 33.8 °F 58% 30.01 in - WNW 10.4 mph - N/A   Clear
5:50 AM 48.2 °F - 33.8 °F 58% 30.01 in - NW 10.4 mph - N/A   Clear
6:20 AM 46.4 °F 41.5 °F 33.8 °F 62% 30.01 in - NW 10.4 mph - N/A   Clear
6:50 AM 46.4 °F 41.1 °F 32.0 °F 57% 30.01 in - NW 11.5 mph - N/A   Clear
7:20 AM 46.4 °F 41.9 °F 32.0 °F 57% 30.04 in - NW 9.2 mph - N/A   Clear
7:50 AM 48.2 °F - 33.8 °F 58% 30.04 in - NW 11.5 mph - N/A   Clear
8:00 AM 48 °F - 33 °F 44% 30.04 in 6 mi NW 11.5 mph - -  
8:20 AM 50.0 °F - 32.0 °F 50% 30.04 in - NW 12.7 mph - N/A   Clear
8:50 AM 51.8 °F - 35.6 °F 54% 30.06 in - NNW 10.4 mph - N/A   Clear
9:20 AM 53.6 °F - 35.6 °F 51% 30.06 in - NW 9.2 mph - N/A   Clear
9:50 AM 55.4 °F - 32.0 °F 41% 30.06 in - NW 10.4 mph - N/A   Clear
10:20 AM 57.2 °F - 32.0 °F 38% 30.06 in - NNW 13.8 mph - N/A   Clear
10:50 AM 57.2 °F - 30.2 °F 36% 30.06 in 6.2 mi NNW 12.7 mph - N/A   Scattered Clouds
11:20 AM 57.2 °F - 30.2 °F 36% 30.06 in 6.2 mi North 9.2 mph - N/A   Scattered Clouds
11:50 AM 59.0 °F - 28.4 °F 31% 30.06 in 6.2 mi Variable 4.6 mph - N/A   Scattered Clouds
12:20 PM 59.0 °F - 28.4 °F 31% 30.06 in 6.2 mi NNE 3.5 mph - N/A   Scattered Clouds
12:50 PM 60.8 °F - 30.2 °F 31% 30.06 in 6.2 mi Variable 3.5 mph - N/A   Scattered Clouds
1:20 PM 60.8 °F - 32.0 °F 34% 30.04 in 6.2 mi NE 5.8 mph - N/A   Scattered Clouds
1:50 PM 62.6 °F - 33.8 °F 34% 30.04 in 6.2 mi Variable 3.5 mph - N/A   Scattered Clouds
2:00 PM 62 °F - 35 °F 24% 30.04 in 6 mi ESE 3.5 mph - -   Scattered Clouds
2:20 PM 60.8 °F - 28.4 °F 29% 30.04 in 6.2 mi East 4.6 mph - N/A   Scattered Clouds
2:50 PM 60.8 °F - 35.6 °F 39% 30.04 in 6.2 mi SSE 5.8 mph - N/A   Scattered Clouds
3:20 PM 60.8 °F - 32.0 °F 34% 30.06 in 6.2 mi South 8.1 mph - N/A   Scattered Clouds
3:50 PM 59.0 °F - 33.8 °F 39% 30.06 in 6.2 mi South 9.2 mph - N/A   Scattered Clouds
4:20 PM 59.0 °F - 35.6 °F 42% 30.06 in 6.2 mi South 8.1 mph - N/A   Scattered Clouds
4:50 PM 59.0 °F - 32.0 °F 36% 30.06 in 6.2 mi South 6.9 mph - N/A   Scattered Clouds
5:20 PM 55.4 °F - 35.6 °F 47% 30.06 in 6.2 mi South 4.6 mph - N/A   Partly Cloudy
5:50 PM 53.6 °F - 35.6 °F 51% 30.06 in 6.2 mi SSW 3.5 mph - N/A   Partly Cloudy
6:20 PM 50.0 °F - 37.4 °F 62% 30.09 in - Calm Calm - N/A   Clear
6:50 PM 48.2 °F - 37.4 °F 66% 30.09 in - Calm Calm - N/A   Clear
7:20 PM 48.2 °F - 37.4 °F 66% 30.09 in - NNW 3.5 mph - N/A   Clear
7:50 PM 46.4 °F 45.2 °F 37.4 °F 71% 30.09 in - North 3.5 mph - N/A   Clear
8:00 PM 47 °F - 38 °F 61% 30.09 in 6 mi North 3.5 mph - -  
8:20 PM 46.4 °F 42.9 °F 39.2 °F 76% 30.09 in - North 6.9 mph - N/A   Clear
8:50 PM 44.6 °F 40.7 °F 39.2 °F 81% 30.09 in - North 6.9 mph - N/A   Clear
9:20 PM 46.4 °F 44.3 °F 39.2 °F 76% 30.12 in - NNW 4.6 mph - N/A   Clear
9:50 PM 44.6 °F 40.7 °F 37.4 °F 76% 30.12 in - North 6.9 mph - N/A   Clear
10:20 PM 42.8 °F 39.3 °F 37.4 °F 81% 30.12 in - North 5.8 mph - N/A   Clear
10:50 PM 42.8 °F 41.1 °F 37.4 °F 81% 30.12 in - NNW 3.5 mph - N/A   Clear
11:20 PM 42.8 °F 39.3 °F 37.4 °F 81% 30.12 in - NNW 5.8 mph - N/A   Clear
11:50 PM 42.8 °F 40.1 °F 37.4 °F 81% 30.15 in - NNW 4.6 mph - N/A   Clear